Location: ?????????
(41.1143°N, 22.7905°E)
Time: 02:38:52
(UTC+00:00)

Cosmos 1867 - Pass Details

Date: 13 December 2025
Orbit: 777 x 797 km, 65.0° (Epoch: 12 January)

Event Time Altitude Azimuth Distance (km) Brightness Sun altitude
Rises 16:07:19 0° 324° (NW) 3,306 7.0 -12.2°
Reaches altitude 10° 16:09:46 10° 321° (NW) 2,372 6.3 -12.6°
Maximum altitude 16:15:08 61° 242° (WSW) 901 4.2 -13.6°
Drops below altitude 10° 16:20:28 10° 163° (SSE) 2,351 6.0 -14.5°
Sets 16:22:53 0° 160° (SSE) 3,273 6.8 -14.9°
